CZ-6A R/B

Last updated on Sun Nov 16 2025 00:02:21 GMT+0000 (Coordinated Universal Time)

1 66051U 25233U 25319.53270418 .00000679 00000+0 13995-3 0 9994 2 66051 89.0301 65.0730 0084528 20.2257 340.2268 14.57026927 4256
UTC large
Height (km)
Speed (km/s)
/
Latitude / Longitude
Inclination (degrees)
Orbital Period (minutes)
Azimuth
Elevation
Range (km)
Doppler Factor

Next 0 passes for location: London (51.5072 / 0.1276)

Sorry there are no passes over London.